Flag for U.S.A. Weather past 2 weeks in Tallahassee, Florida, U.S.A.

Now
57 °F

Passing clouds.


Feels Like: 57 °F
Forecast: 59 / 80 °F
Wind: No wind

Location: Tallahassee Regional Airport

Current Time: Mar 31, 2015 at 2:23:35 AM

Latest Report: Mar 31, 2015 at 1:53 AM


Visibility: 9 mi

Pressure: 30.13 "Hg

Humidity: 93%

Dew point: 55 °F

Location of TallahasseeLocation

Historic Weather in Tallahassee — Graph

°F

Tallahassee temperature yesterday

Maximum temperature yesterday: 79 °F (at 2:53 PM)
Minimum temperature yesterday: 42 °F (at 4:53 AM)
Average temperature yesterday: 60 °F

Past Weeks' High & Low Weather Summary

 TemperatureHumidityPressure
High89 °F (Mar 17, 3:53 PM)100% (Mar 21, 8:53 PM)30.40 "Hg (Mar 21, 8:53 PM)
Low42 °F (Mar 29, 2:53 AM)22% (Mar 16, 12:53 PM)29.78 "Hg (Mar 27, 4:53 AM)
Average67 °F70%30.06 "Hg
* Reported Mar 16 12:53 AM — Mar 31 12:53 AM, Tallahassee, Weather by CustomWeather, © 2015

Note: Actual official high and low records may vary slightly from our data, if they occured in-between our weather recording intervals... More about our weather records

Advertising

Tallahassee weather history for previous 24 hours

 ConditionsComfort  
Time TempWeatherWind HumidityBarometerVisibility
12:53 AM
Tue, Mar 31
59 °FFog.No wind93%30.14 "Hg6 mi
11:53 PM
Mon, Mar 30
61 °FClear.No wind90%30.15 "Hg10 mi
10:53 PM63 °FPassing clouds.No wind90%30.15 "Hg10 mi
9:53 PM63 °FPassing clouds.3 mph90%30.14 "Hg10 mi
8:53 PM65 °FPassing clouds.3 mph91%30.13 "Hg10 mi
7:53 PM67 °FScattered clouds.6 mph87%30.12 "Hg10 mi
6:53 PM68 °FBroken clouds.No wind82%30.12 "Hg10 mi
5:53 PM70 °FThunderstorms. Broken clouds.5 mph79%30.14 "Hg10 mi
4:53 PM74 °FThunderstorms. Partly sunny.13 mph60%30.13 "Hg10 mi
3:53 PM77 °FThunderstorms. Partly sunny.12 mph50%30.15 "Hg10 mi
2:53 PM79 °FThunderstorms. Partly sunny.12 mph47%30.18 "Hg10 mi
1:53 PM76 °FPartly sunny.10 mph48%30.22 "Hg10 mi
12:53 PM75 °FPartly sunny.10 mph50%30.25 "Hg10 mi
11:53 AM73 °FScattered clouds.7 mph48%30.28 "Hg10 mi
10:53 AM69 °FPassing clouds.10 mph49%30.27 "Hg10 mi
9:53 AM62 °FPassing clouds.8 mph62%30.26 "Hg10 mi
8:53 AM50 °FPassing clouds.3 mph80%30.26 "Hg10 mi
7:53 AM43 °FClear.No wind89%30.25 "Hg10 mi
6:53 AM42 °FClear.No wind89%30.25 "Hg10 mi
5:53 AM43 °FClear.No wind89%30.24 "Hg10 mi
4:53 AM42 °FClear.No wind85%30.23 "Hg10 mi
3:53 AM44 °FClear.No wind85%30.25 "Hg10 mi
2:53 AM44 °FClear.No wind85%30.27 "Hg10 mi
Weather by CustomWeather, © 2015

See weather overviewHow to use our weather pages